Regional Weather Roundup
Issued by NWS Jackson, KY

Home | Current Version | Previous Version | Text Only | Print | Product List | Glossary Off
Versions: 1 2 3 4 5 6 7 8 9 10 11 12 13 14 15 16 17 18 19 20 21 22 23 24 25 26 27 28 29 30 31 32 33 34 35 36 37 38 39 40 41 42 43 44 45 46 47 48 49 50

000
ASUS43 KJKL 261810
RWRJKL

EAST KENTUCKY HOURLY WEATHER ROUNDUP
NATIONAL WEATHER SERVICE JACKSON KY
100 PM EST SUN FEB 26 2017

NOTE: "FAIR" INDICATES FEW OR NO CLOUDS BELOW 12,000 FEET WITH
NO SIGNIFICANT WEATHER AND/OR OBSTRUCTIONS TO VISIBILITY.

* THESE REPORTS ARE NOT UNDER NWS QUALITY CONTROL AND MAY NOT
  REPORT WEATHER SUCH AS PRECIPITATION AND FOG.

KYZ079-080-083-085-087-088-110-112-115-119-120-261900
...EASTERN KENTUCKY...

CITY           SKY/WX    TMP DP  RH WIND       PRES   REMARKS
JACKSON        SUNNY     41  15  35 VRB3      30.20F
6HR MIN TEMP:  25; 6HR MAX TEMP:  43;

LONDON         SUNNY     42  16  34 E6        30.22F
6HR MIN TEMP:  22; 6HR MAX TEMP:  43;

SOMERSET*      SUNNY     41  16  36 S5        30.24F
MONTICELLO*    SUNNY     45  19  35 VRB5      30.24F
6HR MIN TEMP:  16; 6HR MAX TEMP:  45;

WILLIAMSBURG*  CLEAR     43  16  33 S6        30.22F
MIDDLESBORO*   SUNNY     44  12  26 NE3       30.24S
6HR MIN TEMP:  23; 6HR MAX TEMP:  44;

HARLAN APT*    CLEAR     43  12  28 CALM      30.21F
PIKE CO APT*     N/A     40  17  38 S7        30.21F
BIG SANDY APT* CLEAR     41  14  34 CALM      30.22F
6HR MIN TEMP:  28; 6HR MAX TEMP:  42;

MOREHEAD APT*  CLEAR     39  12  33 VRB5      30.24F
ASHLAND*       SUNNY     41  19  42 CALM      30.22F
$$

KYZ035-036-041-042-044-050-067-078-099-261900
...CENTRAL KENTUCKY...

CITY           SKY/WX    TMP DP  RH WIND       PRES   REMARKS
FLEMING/MASON* SUNNY     40  18  41 SW3       30.22F
DANVILLE*      SUNNY     43  16  33 S5        30.22F
LEXINGTON      SUNNY     42  11  28 CALM      30.20F
6HR MIN TEMP:  22; 6HR MAX TEMP:  43;

FRANKFORT      SUNNY     43  12  28 S7        30.20F
6HR MIN TEMP:  21; 6HR MAX TEMP:  43;

LOUISVILLE     MOSUNNY   45  12  26 SE12      30.21F
6HR MIN TEMP:  26; 6HR MAX TEMP:  45;

LEBANON*         N/A     43  14  31 CALM      30.22F
GLASGOW*       SUNNY     47  16  29 S9        30.23S
BOWLING GREEN  SUNNY     48  17  29 S9        30.23F
6HR MIN TEMP:  23; 6HR MAX TEMP:  48;

$$

KYZ091>093-OHZ055-061-077-WVZ005-015-034-035-042-261900
...SOUTHERN OHIO/WEST VIRGINIA...

CITY           SKY/WX    TMP DP  RH WIND       PRES   REMARKS
COVINGTON      SUNNY     41  15  35 S12       30.18F
COLUMBUS       MOSUNNY   39  19  44 SW7       30.19S WCI  34
DAYTON         MOSUNNY   38  17  42 SW13      30.16F WCI  30
WILMINGTON     SUNNY     38  18  44 SW13      30.17F WCI  30
HUNTINGTON     SUNNY     40  15  36 VRB5      30.22F
CHARLESTON     SUNNY     42  13  30 W6G16     30.21R
PINEVILLE*     SUNNY     42   8  24 MISG      30.23S
BECKLEY        SUNNY     38  11  32 W16G23    30.14S WCI  29
BLUEFIELD      SUNNY     35  10  35 W18       30.15R WCI  24
LOGAN CO APT*    N/A     41  14  33 VRB5      30.19S
$$

VAZ002-007-008-TNZ017-027-036-066-071-261900
...SOUTHWEST VIRGINIA/EAST TENNESSEE...

CITY           SKY/WX    TMP DP  RH WIND       PRES   REMARKS
WISE*          SUNNY     39  12  33 CALM      30.17F
JONESVILLE*      N/A     43  14  31 NW3       30.24F
ABINGDON*      SUNNY     41  16  36 W7        30.19F
BRISTOL        SUNNY     42  16  34 VRB3      30.23F
MORRISTOWN*    CLEAR     43  16  33 NW7       30.23S
SEVIERVILLE*   CLEAR     46  12  25 VRB3      30.24F
KNOXVILLE      SUNNY     45  14  28 VRB3      30.23F
LAFOLLETTE*    CLEAR     45  14  29 SW6       30.26F
OAK RIDGE      SUNNY     46  14  27 VRB5      30.25F
CROSSVILLE     SUNNY     43  15  32 VRB3      30.21F
NASHVILLE      MOSUNNY   50  15  24 E9        30.23F
$$

...KEY TO REMARKS...
VSB - VISIBILITY IN MILES
WCI - WIND CHILL INDEX
HX  - HEAT INDEX

$$



USA.gov is the U.S. government's official web portal to all federal, state and local government web resources and services.